EDT,Max TemperatureF,Mean TemperatureF,Min TemperatureF,Max Dew PointF,MeanDew PointF,Min DewpointF,Max Humidity, Mean Humidity, Min Humidity, Max Sea Level PressureIn, Mean Sea Level PressureIn, Min Sea Level PressureIn, Max VisibilityMiles, Mean VisibilityMiles, Min VisibilityMiles, Max Wind SpeedMPH, Mean Wind SpeedMPH, Max Gust SpeedMPH,PrecipitationIn, CloudCover, Events, WindDirDegrees
2014-3-1,43,31,19,25,20,8,88,67,38,30.21,30.14,30.07,10,7,2,15,8,,0.02,6,Snow,312
2014-3-2,24,17,10,21,11,1,89,79,59,30.32,30.24,30.18,10,5,1,17,11,25,0.06,6,Snow,34
2014-3-3,10,5,0,2,-3,-7,79,64,55,30.48,30.43,30.32,10,10,8,15,9,,0.00,0,,23
2014-3-4,24,12,0,11,5,-5,80,68,53,30.42,30.31,30.22,10,10,10,13,4,,0.00,4,,216
2014-3-5,23,18,14,15,11,5,78,69,57,30.47,30.37,30.24,10,8,2,21,9,24,0.00,5,Snow,45
2014-3-6,30,23,16,18,12,6,85,68,56,30.44,30.31,30.17,10,10,10,14,11,,0.00,2,,61
2014-3-7,48,32,15,34,24,11,91,74,52,30.13,30.02,29.93,10,8,3,9,4,,0.00,0,,173
2014-3-8,39,34,30,33,29,25,93,86,73,30.17,30.06,29.92,7,3,0,14,6,,0.04,7,Fog-Rain-Snow,13
2014-3-9,37,29,21,26,22,19,89,71,52,30.28,30.13,29.90,10,10,6,16,8,,0.00,1,,259
2014-3-10,55,46,37,42,35,26,77,68,59,29.90,29.74,29.64,10,9,6,21,14,26,0.01,3,Rain,233
2014-3-11,59,48,37,47,40,35,89,74,56,29.69,29.66,29.62,10,6,4,15,8,,0.00,1,,276
2014-3-12,42,27,12,35,24,5,96,85,65,30.02,29.60,29.41,10,3,0,30,20,45,0.34,7,Fog-Rain-Snow,4
2014-3-13,30,16,3,19,7,1,88,66,50,30.21,30.11,30.02,10,10,10,14,9,,0.00,4,,248
2014-3-14,57,42,28,38,30,18,70,61,45,30.00,29.80,29.64,10,10,10,28,19,44,0.00,2,,217
2014-3-15,44,39,34,32,29,24,85,72,55,30.19,30.00,29.81,10,10,10,16,12,22,0.00,3,,280
2014-3-16,32,26,18,23,14,8,75,69,62,30.33,30.24,30.14,10,10,5,24,18,32,0.00,6,Snow,44
2014-3-17,36,24,12,22,15,8,84,68,50,30.12,29.98,29.89,10,10,10,18,12,,0.00,0,,52
2014-3-18,53,38,23,35,28,20,88,71,50,29.99,29.94,29.79,10,10,6,15,7,,0.00,0,,115
2014-3-19,52,44,37,47,41,33,96,86,76,29.90,29.75,29.65,10,7,2,31,16,43,0.10,8,Rain,218
2014-3-20,43,36,32,34,28,25,93,74,57,30.06,29.99,29.90,10,9,5,23,18,32,0.00,6,,265
2014-3-21,55,40,25,38,30,22,93,76,51,30.08,29.98,29.70,10,7,2,17,5,,0.00,4,Snow,118
2014-3-22,54,44,35,37,31,26,83,69,47,30.19,30.01,29.67,10,8,5,21,14,34,0.00,7,,289
2014-3-23,33,27,21,25,13,6,72,55,41,30.35,30.30,30.20,10,10,10,18,12,25,0.00,4,,340
2014-3-24,34,25,17,17,12,8,81,61,40,30.35,30.26,30.12,10,10,10,17,7,22,0.00,1,,289
2014-3-25,34,26,19,26,19,7,89,72,47,30.18,30.00,29.94,10,6,0,23,9,30,0.01,6,Fog-Snow,263
2014-3-26,33,24,14,17,11,7,80,59,40,30.37,30.28,30.20,10,10,10,12,7,18,0.00,1,,264
2014-3-27,46,36,28,38,26,17,82,64,53,30.21,29.99,29.73,10,10,8,22,14,36,0.12,7,Rain,169
2014-3-28,52,46,39,46,39,33,90,76,63,30.16,29.87,29.63,10,10,9,40,22,48,0.03,7,Rain,257
2014-3-29,39,36,33,34,31,27,92,82,73,30.14,30.05,29.97,10,7,0,25,13,34,0.03,8,Fog-Snow,27
2014-3-30,51,39,27,28,25,23,85,64,33,30.20,30.15,30.11,10,10,9,15,11,18,0.00,1,,323
2014-3-31,63,46,30,35,31,27,85,57,31,30.20,30.12,29.95,10,10,9,15,6,,0.00,0,,146